Location: Lecco
(45.8566°N, 9.3977°E)
Time: 11:43:37
(UTC+02:00)

Vanguard 2 Rocket - Pass Details

Date: 21 August 2020
Orbit: 554 x 3326 km, 32.9° (Epoch: 24 September)

Event Time Altitude Azimuth Distance (km) Brightness Sun altitude
Rises 18:45:27 0° 248° (WSW) 2,925 10.8 15.4°
Reaches altitude 10° 18:47:58 10° 229° (SW) 2,202 9.8 14.9°
Maximum altitude 18:51:40 20° 182° (S) 1,918 8.7 14.3°
Drops below altitude 10° 18:56:40 10° 137° (SE) 3,096 9.3 13.4°
Sets 19:01:07 0° 123° (ESE) 4,588 10.0 12.6°
